[[{"header":{"parameterUnit":"m.s-1","parameterCategory":1,"la1":30.2991,"la2":30.254,"lo1":-89.0895,"lo2":-89.0444,"dy":0.0017,"dx":0.0017,"nx":28,"ny":28,"refTime":"2024-10-21T03:00:00:Z","depth":0,"parameterNumber":2,"parameterNumberName":"U-component_of_WINDS"},"data":[0,0,0,0,0,0,0,0,0,0,0,0,0,0,0,0,0,0,0,0,0,0,0,0,0,0,0,0,0,0,0,0,0,0,0,0,0,0,0,0,0,0,0,0,0,0,0,0,0,0,0,0,0,0,0,0,0,0,-0.4609,-0.4609,0,-0.4588,-0.4588,-0.4588,-0.4521,-0.4519,-0.4518,-0.4516,-0.4497,-0.4498,-0.4498,0,0,0,0,0,0,0,0,0,0,0,0,0,-0.4594,-0.4595,-0.4609,-0.4609,-0.4609,-0.4588,-0.4588,-0.4588,-0.4521,-0.4519,-0.4517,-0.4516,-0.4496,-0.4497,-0.4498,0,0,0,0,0,0,0,0,0,0,0,0,0,-0.459,-0.4595,-0.4609,-0.4573,-0.457,-0.4588,-0.4588,-0.4588,-0.4521,-0.4519,-0.4517,-0.4515,-0.4496,-0.4497,-0.4499,-0.4551,0,0,-0.4503,-0.4503,0,0,0,0,0,0,0,0,-0.459,-0.459,-0.4579,-0.4576,-0.4572,-0.4555,-0.4575,-0.4575,-0.4522,-0.454,-0.4516,-0.4514,-0.4518,-0.4517,-0.4518,-0.455,-0.455,-0.4503,-0.4503,-0.4504,-0.4504,0,0,0,0,0,0,0,-0.459,-0.4591,-0.4601,-0.4579,-0.4574,-0.4559,-0.4555,-0.4575,-0.4542,-0.4538,-0.4533,-0.4531,-0.4516,-0.4517,-0.4517,-0.4549,-0.4503,-0.4504,-0.4505,-0.4505,-0.4624,-0.4627,0,0,0,0,0,0,-0.4596,-0.4592,-0.4602,-0.46,-0.4576,-0.4561,-0.4557,-0.4563,-0.4541,-0.4536,-0.4533,-0.4528,-0.4516,-0.4516,-0.4516,-0.4577,-0.4504,-0.4505,-0.4506,-0.4622,-0.4625,-0.4628,0,0,0,0,0,0,-0.4596,-0.4597,-0.4602,-0.4595,-0.4594,-0.4563,-0.457,-0.4563,-0.4565,-0.4538,-0.4532,-0.4541,-0.4514,-0.4515,-0.4543,-0.4576,-0.4506,-0.4507,-0.4619,-0.4623,-0.4626,-0.47,0,0,0,0,0,0,-0.4595,-0.4598,-0.4617,-0.4596,-0.4595,-0.4629,-0.4572,-0.4564,-0.4567,-0.456,-0.4543,-0.4538,-0.4513,-0.4542,-0.4545,-0.4576,-0.4508,-0.4616,-0.4621,-0.4625,-0.4694,-0.4705,-0.4715,0,0,0,0,0,-0.4595,-0.4639,-0.4618,-0.462,-0.4618,-0.4631,-0.4631,-0.46,-0.457,-0.4589,-0.4572,-0.4539,-0.4572,-0.4545,-0.4548,-0.4581,-0.4614,-0.462,-0.4625,-0.469,-0.4703,-0.4715,0,0,0,0,0,0,-0.4665,-0.4635,-0.4612,-0.465,-0.4644,-0.462,-0.4644,-0.4615,-0.4618,-0.4611,-0.4573,-0.457,-0.4604,-0.4595,-0.4566,-0.4631,-0.4587,-0.4594,-0.4636,-0.4649,-0.4659,-0.4661,-0.4509,0,0,0,0,0,-0.4685,-0.4697,-0.4671,-0.4707,-0.4705,-0.4675,-0.4679,-0.4656,-0.4648,-0.4645,-0.463,-0.4625,-0.4633,-0.464,-0.4647,-0.4692,-0.4688,-0.4716,-0.4727,-0.4735,-0.4741,-0.4766,-0.4778,-0.4645,-0.4645,-0.4645,0,0,-0.4726,-0.4711,-0.4721,-0.472,-0.4713,-0.4727,-0.4673,-0.4691,-0.4702,-0.4648,-0.4674,-0.4663,-0.4654,-0.4692,-0.4708,-0.4685,-0.4777,-0.4742,-0.4749,-0.4751,-0.4773,-0.4785,-0.4797,-0.4649,-0.4648,-0.4648,0,0,-0.4808,-0.4798,-0.4827,-0.4821,-0.481,-0.4789,-0.4797,-0.4777,-0.4768,-0.4793,-0.4754,-0.4766,-0.4782,-0.4778,-0.4778,-0.4859,-0.4829,-0.4862,-0.4917,-0.4941,-0.4952,-0.4961,-0.4991,-0.5002,-0.4868,-0.4869,-0.4869,0,-0.4861,-0.4881,-0.4846,-0.4866,-0.4868,-0.4819,-0.4849,-0.4845,-0.4837,-0.4839,-0.4814,-0.4833,-0.4824,-0.486,-0.488,-0.4881,-0.4889,-0.4865,-0.4953,-0.4962,-0.497,-0.4998,-0.501,-0.4873,-0.4872,-0.4872,-0.4872,0,-0.4947,-0.4962,-0.4986,-0.498,-0.4984,-0.5009,-0.4978,-0.4986,-0.4963,-0.4946,-0.4973,-0.496,-0.4963,-0.497,-0.4947,-0.5004,-0.499,-0.4959,-0.4915,-0.4987,-0.5013,-0.5024,-0.4879,-0.4877,-0.4876,-0.4875,0,0,-0.5074,-0.5047,-0.5057,-0.5054,-0.5038,-0.5049,-0.5072,-0.5075,-0.5084,-0.508,-0.5099,-0.5114,-0.5086,-0.5086,-0.5062,-0.5083,-0.515,-0.505,-0.5049,-0.507,-0.5213,-0.5237,-0.525,-0.5129,-0.5131,-0.5133,-0.5214,0,-0.5153,-0.5191,-0.516,-0.5204,-0.5217,-0.5172,-0.5192,-0.5185,-0.517,-0.518,-0.5163,-0.5175,-0.5135,-0.5135,-0.5154,-0.5138,-0.5178,-0.5131,-0.5148,-0.5149,-0.5153,-0.5263,-0.5289,-0.5366,-0.5224,-0.5225,-0.5227,0,-0.525,-0.5251,-0.5296,-0.5278,-0.5283,-0.5301,-0.5302,-0.5312,-0.5303,-0.5291,-0.5291,-0.5262,-0.5284,-0.524,-0.5271,-0.524,-0.5245,-0.5238,-0.524,-0.5242,-0.5193,-0.5269,-0.539,-0.5402,-0.5242,-0.5241,-0.524,0,-0.534,-0.5352,-0.538,-0.5379,-0.5358,-0.5373,-0.5365,-0.5354,-0.5358,-0.5359,-0.5362,-0.5365,-0.5368,-0.5371,-0.5344,-0.5314,-0.5379,-0.5333,-0.5371,-0.5372,-0.5388,-0.5387,-0.5512,-0.5389,-0.5389,-0.5388,-0.5388,0,-0.5432,-0.5462,-0.542,-0.5438,-0.5471,-0.5435,-0.5468,-0.5456,-0.5447,-0.5462,-0.5422,-0.5438,-0.54,-0.5412,-0.5391,-0.5421,-0.5422,-0.5413,-0.5407,-0.5417,-0.5419,-0.5421,-0.5416,-0.5391,-0.5391,-0.539,-0.539,0,-0.5538,-0.5511,-0.554,-0.5518,-0.5513,-0.5538,-0.552,-0.5536,-0.5518,-0.5538,-0.554,-0.5512,-0.5524,-0.5497,-0.5505,-0.5491,-0.5534,-0.5519,-0.5537,-0.5533,-0.5573,-0.557,-0.5705,-0.5721,-0.5586,-0.5588,-0.5589,0,-0.56,-0.5622,-0.5602,-0.5609,-0.5603,-0.5615,-0.5619,-0.5585,-0.5591,-0.5583,-0.5601,-0.5609,-0.5614,-0.5636,-0.5617,-0.5623,-0.5609,-0.5655,-0.5609,-0.5619,-0.5611,-0.5611,-0.5613,-0.5665,-0.5667,-0.5668,-0.5669,0,-0.5712,-0.5698,-0.5704,-0.5707,-0.5713,-0.5713,-0.5711,-0.5719,-0.5683,-0.5692,-0.5703,-0.5707,-0.5715,-0.5724,-0.5726,-0.5719,-0.5689,-0.5684,-0.5693,-0.5704,-0.5714,-0.5711,-0.5564,-0.5681,-0.568,-0.5679,-0.5678,-0.5678,-0.5798,-0.5816,-0.5805,-0.5814,-0.5809,-0.5808,-0.5822,-0.5806,-0.5815,-0.5818,-0.5798,-0.5814,-0.5806,-0.5805,-0.5801,-0.5814,-0.5793,-0.5806,-0.5809,-0.5814,-0.5821,-0.5711,-0.5814,-0.5813,-0.5813,-0.5813,-0.5812,0,-0.591,-0.5901,-0.5909,-0.5907,-0.5915,-0.5885,-0.5881,-0.5889,-0.5904,-0.5898,-0.5904,-0.5918,-0.5927,-0.5908,-0.5915,-0.5929,-0.5915,-0.5932,-0.5931,-0.593,-0.5839,-0.5831,-0.5942,-0.5942,-0.5942,-0.5942,-0.5942,-0.5942,-0.5969,-0.5998,-0.5982,-0.6008,-0.5998,-0.6014,-0.6014,-0.6013,-0.6009,-0.6026,-0.6033,-0.602,-0.601,-0.6015,-0.6023,-0.6017,-0.6022,-0.6044,-0.6034,-0.5949,-0.5936,-0.5924,-0.5916,-0.6045,-0.6045,-0.6124,-0.6125,-0.6125]},{"header":{"parameterUnit":"m.s-1","parameterCategory":1,"la1":30.2991,"la2":30.254,"lo1":-89.0895,"lo2":-89.0444,"dy":0.0017,"dx":0.0017,"nx":28,"ny":28,"refTime":"2024-10-21T03:00:00:Z","depth":0,"parameterNumber":3,"parameterNumberName":"V-component_of_WINDS"},"data":[0,0,0,0,0,0,0,0,0,0,0,0,0,0,0,0,0,0,0,0,0,0,0,0,0,0,0,0,0,0,0,0,0,0,0,0,0,0,0,0,0,0,0,0,0,0,0,0,0,0,0,0,0,0,0,0,0,0,0.8352,0.8351,0,0.8317,0.8317,0.8317,0.8316,0.8317,0.8317,0.8318,0.8278,0.8277,0.8275,0,0,0,0,0,0,0,0,0,0,0,0,0,0.8412,0.8411,0.8352,0.8351,0.8351,0.8318,0.8317,0.8317,0.8316,0.8317,0.8317,0.8318,0.8279,0.8277,0.8275,0,0,0,0,0,0,0,0,0,0,0,0,0,0.8382,0.841,0.8352,0.8347,0.8346,0.8318,0.8317,0.8316,0.8316,0.8317,0.8318,0.8318,0.8279,0.8277,0.8275,0.8248,0,0,0.8268,0.8267,0,0,0,0,0,0,0,0,0.8384,0.838,0.8348,0.8347,0.8346,0.8322,0.8324,0.8293,0.8316,0.8327,0.8318,0.8318,0.8292,0.8289,0.8281,0.8246,0.8244,0.8268,0.8267,0.8266,0.8265,0,0,0,0,0,0,0,0.8386,0.8382,0.8338,0.8347,0.8346,0.8345,0.8341,0.8318,0.8306,0.8326,0.8326,0.8323,0.8291,0.8283,0.828,0.8244,0.8268,0.8266,0.8265,0.8264,0.8184,0.8183,0,0,0,0,0,0,0.839,0.8383,0.8339,0.8337,0.8367,0.8343,0.8339,0.8329,0.8306,0.8304,0.8322,0.8323,0.8286,0.8282,0.8278,0.8244,0.8266,0.8264,0.8262,0.8185,0.8184,0.8183,0,0,0,0,0,0,0.8391,0.8386,0.834,0.836,0.8354,0.8341,0.833,0.8328,0.8319,0.8303,0.8301,0.8316,0.8287,0.8281,0.8256,0.8243,0.8263,0.8261,0.8186,0.8184,0.8183,0.8177,0,0,0,0,0,0,0.8393,0.8386,0.8377,0.836,0.8353,0.832,0.8329,0.8327,0.8316,0.8317,0.8296,0.8294,0.8287,0.8259,0.8253,0.824,0.8259,0.8187,0.8185,0.8184,0.8178,0.8175,0.8173,0,0,0,0,0,0.8395,0.8376,0.8377,0.8371,0.8342,0.8319,0.8315,0.8309,0.8315,0.8305,0.8294,0.8294,0.8246,0.8256,0.825,0.8236,0.8187,0.8186,0.8184,0.8179,0.8176,0.8173,0,0,0,0,0,0,0.839,0.8373,0.8374,0.8349,0.8336,0.8319,0.8306,0.8306,0.8289,0.829,0.8281,0.8277,0.8251,0.8241,0.8253,0.8208,0.8217,0.8214,0.8215,0.8212,0.821,0.8212,0.8257,0,0,0,0,0,0.8387,0.8371,0.8357,0.8336,0.8329,0.8319,0.8309,0.8305,0.829,0.8284,0.8271,0.8256,0.8237,0.8224,0.8206,0.8177,0.8172,0.8164,0.8162,0.816,0.8157,0.814,0.8136,0.8177,0.8177,0.8177,0,0,0.8378,0.8367,0.8358,0.8335,0.8324,0.8306,0.8314,0.8295,0.8282,0.828,0.8255,0.8246,0.8227,0.82,0.8187,0.8191,0.8145,0.8158,0.8156,0.8154,0.8137,0.8133,0.813,0.8176,0.8176,0.8176,0,0,0.8354,0.8345,0.8326,0.8315,0.8299,0.8292,0.8288,0.8271,0.8265,0.824,0.8239,0.8222,0.8189,0.8176,0.8165,0.8136,0.8134,0.813,0.8117,0.81,0.8097,0.8094,0.8082,0.8078,0.8127,0.8127,0.8127,0,0.8345,0.832,0.8316,0.8297,0.8287,0.8287,0.8266,0.8256,0.8234,0.8225,0.8231,0.819,0.8178,0.8146,0.8139,0.8131,0.8124,0.8132,0.8098,0.8095,0.8092,0.8081,0.8076,0.8127,0.8127,0.8127,0.8127,0,0.831,0.8292,0.8279,0.8259,0.8247,0.8228,0.8219,0.8207,0.8204,0.8197,0.817,0.8156,0.8134,0.8126,0.8123,0.8094,0.8097,0.81,0.8109,0.8088,0.8077,0.8073,0.8126,0.8126,0.8126,0.8126,0,0,0.8281,0.826,0.8254,0.8245,0.8227,0.8213,0.8193,0.8173,0.8162,0.8147,0.8129,0.8102,0.8105,0.8092,0.8088,0.8073,0.8049,0.8078,0.8077,0.8072,0.8014,0.8011,0.8006,0.8049,0.8048,0.8047,0.8015,0,0.8254,0.822,0.8216,0.8185,0.8168,0.8168,0.815,0.8136,0.8128,0.8111,0.8102,0.8082,0.8089,0.8081,0.8067,0.8055,0.8037,0.8058,0.803,0.8029,0.8034,0.8001,0.7997,0.7968,0.8011,0.8011,0.801,0,0.8218,0.8203,0.8171,0.8155,0.8148,0.8132,0.8113,0.8098,0.8082,0.8077,0.8063,0.806,0.8037,0.8048,0.8016,0.803,0.8018,0.8011,0.801,0.8006,0.8017,0.7995,0.7959,0.7954,0.8004,0.8004,0.8004,0,0.8199,0.817,0.8148,0.814,0.8121,0.811,0.8101,0.8086,0.8074,0.8057,0.8048,0.8029,0.8017,0.8001,0.7992,0.8001,0.796,0.797,0.7954,0.7954,0.7944,0.7945,0.7905,0.7939,0.7939,0.7939,0.7939,0,0.8168,0.8148,0.8139,0.8124,0.8102,0.8096,0.8073,0.8064,0.8051,0.8033,0.8031,0.8015,0.8005,0.7986,0.7979,0.7953,0.7948,0.7942,0.794,0.7941,0.7942,0.7933,0.7934,0.7938,0.7938,0.7939,0.7939,0,0.8142,0.8135,0.811,0.8094,0.809,0.8074,0.8059,0.8045,0.8037,0.8015,0.801,0.7997,0.7975,0.7965,0.7938,0.7933,0.7902,0.7902,0.7908,0.7907,0.7891,0.7892,0.7842,0.7835,0.7876,0.7875,0.7875,0,0.8123,0.8108,0.8091,0.808,0.8071,0.8053,0.8042,0.8035,0.8022,0.8003,0.799,0.7968,0.7951,0.7916,0.7903,0.7881,0.788,0.7864,0.7877,0.7878,0.7878,0.7878,0.7876,0.7861,0.7861,0.7861,0.786,0,0.8088,0.8086,0.807,0.8052,0.8038,0.8024,0.8009,0.8,0.7991,0.7976,0.7955,0.7941,0.7914,0.7892,0.787,0.7859,0.7857,0.7857,0.7852,0.7852,0.7855,0.7852,0.7901,0.7858,0.7858,0.7858,0.7858,0.7858,0.8064,0.805,0.8036,0.8018,0.8007,0.7993,0.7978,0.7969,0.7952,0.793,0.7927,0.7903,0.7886,0.7857,0.7845,0.7825,0.7829,0.7822,0.782,0.7818,0.7816,0.786,0.7821,0.7821,0.7822,0.7822,0.7822,0,0.8029,0.802,0.8003,0.7983,0.7969,0.7971,0.7955,0.7941,0.7921,0.7907,0.789,0.7864,0.7842,0.7828,0.7806,0.7793,0.7792,0.7787,0.7787,0.7784,0.7815,0.7821,0.7789,0.7789,0.7789,0.7789,0.7789,0.7789,0.8008,0.7985,0.798,0.795,0.7941,0.7919,0.791,0.7897,0.7885,0.7857,0.7839,0.7831,0.7816,0.7792,0.7772,0.7768,0.776,0.7755,0.7751,0.7779,0.7782,0.7786,0.7791,0.7753,0.7753,0.7722,0.7722,0.7721]}]]